Weather History for Augusta, ME

Change the Weather History Date:

Sunday, February 17, 2013

  Actual Average Record
Temperature  
Mean Temperature 20 °F -  
Max Temperature 23 °F 30 °F 48 °F (2006)
Min Temperature 17 °F 13 °F -2 °F (2004)
Degree Days  
Heating Degree Days 45    
Moisture  
Dew Point 11 °F    
Average Humidity 70    
Maximum Humidity 86    
Minimum Humidity 50    
Precipitation  
Precipitation 0.00 in - - ()
Sea Level Pressure  
Sea Level Pressure 29.34 in    
Wind  
Wind Speed 20 mph (NNW)    
Max Wind Speed 31 mph    
Max Gust Speed 46 mph    
Visibility 4 miles    
Events Fog , Snow    
Averages and records for this station are not official NWS values.
T = Trace of Precipitation, MM = Missing Value Source: NWS Daily Summary

Daily Weather History Graph

Daily Weather History Graph

Search for Another Location

Airport:

Trip Planner

Search our weather history database for the weather conditions in past years. The results will help you decide how hot, cold, wet, or windy it might be!

Date:

Astronomy

Feb. 17, 2013 Rise Set
Actual Time 6:35 AM EST 5:11 PM EST
Civil Twilight 6:05 AM EST 5:41 PM EST
Nautical Twilight 5:32 AM EST 6:15 PM EST
Astronomical Twilight 4:58 AM EST 6:48 PM EST
Moon 10:08 AM EST (2/17) 12:21 AM EST (2/17)
Length of Visible Light 11h 35m
Length of Day
10h 35m
Waxing Crescent, 49% of the Moon is Illuminated
Feb 17
Waxing Crescent
Feb 17
First Quarter
Feb 25
Full
Mar 4
Last Quarter
Mar 11
New

Hourly Weather History & Observations

Time (EST) Temp. Windchill Dew Point Humidity Pressure Visibility Wind Dir Wind Speed Gust Speed Precip Events Conditions
12:53 AM 23.0 °F 10.1 °F 8.1 °F 53% 29.75 in 10.0 mi North 15.0 mph - N/A   Overcast
1:53 AM 21.9 °F 7.8 °F 7.0 °F 53% 29.72 in 10.0 mi North 17.3 mph 26.5 mph N/A   Overcast
2:53 AM 21.0 °F 8.1 °F 8.1 °F 57% 29.68 in 10.0 mi NNW 13.8 mph 26.5 mph N/A   Overcast
3:53 AM 21.0 °F 6.6 °F 7.0 °F 55% 29.64 in 10.0 mi North 17.3 mph 27.6 mph N/A   Overcast
4:48 AM 19.4 °F 3.2 °F 8.6 °F 63% 29.60 in 4.0 mi North 20.7 mph 27.6 mph 0.00 in Snow Light Snow
4:53 AM 19.9 °F 3.9 °F 9.0 °F 62% 29.61 in 3.0 mi North 20.7 mph 29.9 mph 0.00 in Snow Light Snow
5:24 AM 19.4 °F 5.0 °F 10.4 °F 68% 29.56 in 6.0 mi North 16.1 mph 23.0 mph 0.00 in Snow Light Snow
5:49 AM 19.4 °F 3.2 °F 10.4 °F 68% 29.53 in 2.5 mi North 20.7 mph 27.6 mph N/A Snow Light Snow
5:53 AM 19.9 °F 4.8 °F 10.9 °F 68% 29.55 in 2.5 mi North 18.4 mph 28.8 mph 0.00 in Snow Light Snow
6:04 AM 19.4 °F 3.6 °F 10.4 °F 68% 29.53 in 4.0 mi North 19.6 mph 28.8 mph 0.00 in Snow Light Snow
6:32 AM 19.4 °F 3.6 °F 12.2 °F 74% 29.51 in 2.5 mi North 19.6 mph 31.1 mph 0.00 in Snow Light Snow
6:53 AM 19.0 °F 2.0 °F 12.0 °F 74% 29.50 in 2.5 mi North 23.0 mph 29.9 mph 0.00 in Snow Light Snow
7:22 AM 19.4 °F 3.6 °F 12.2 °F 74% 29.45 in 1.8 mi North 19.6 mph 29.9 mph 0.00 in Snow Light Snow
7:53 AM 18.0 °F 1.3 °F 14.0 °F 84% 29.44 in 1.0 mi NNW 20.7 mph 28.8 mph 0.00 in Snow Light Snow
8:12 AM 19.4 °F 4.1 °F 15.8 °F 86% 29.42 in 0.8 mi NNW 18.4 mph 31.1 mph 0.00 in Snow Light Snow
8:22 AM 19.4 °F 2.5 °F 15.8 °F 86% 29.41 in 1.0 mi NNW 23.0 mph 32.2 mph 0.00 in Snow Light Snow
8:27 AM 19.4 °F 2.5 °F 15.8 °F 86% 29.40 in 0.8 mi North 23.0 mph 32.2 mph 0.00 in Snow Light Snow
8:53 AM 19.0 °F 2.0 °F 15.1 °F 85% 29.40 in 0.8 mi North 23.0 mph 34.5 mph 0.00 in Snow Light Snow
9:53 AM 19.0 °F -0.3 °F 15.1 °F 85% 29.35 in 0.5 mi North 31.1 mph 46.0 mph 0.00 in Fog , Snow Light Snow
10:27 AM 19.4 °F 2.1 °F 14.0 °F 80% 29.30 in 1.0 mi North 24.2 mph 35.7 mph 0.00 in Snow Light Snow
10:53 AM 21.0 °F 4.3 °F 14.0 °F 74% 29.31 in 1.0 mi NNW 24.2 mph 36.8 mph 0.00 in Snow Light Snow
11:09 AM 19.4 °F 0.2 °F 14.0 °F 80% 29.29 in 0.5 mi NNW 31.1 mph 40.3 mph 0.00 in Snow Snow
11:18 AM 19.4 °F 0.8 °F 15.8 °F 86% 29.28 in 0.5 mi NNW 28.8 mph 42.6 mph 0.00 in Snow Snow
11:27 AM 19.4 °F 0.2 °F 15.8 °F 86% 29.27 in 0.2 mi NNW 31.1 mph 41.4 mph 0.00 in Snow Heavy Snow
11:35 AM 21.2 °F 2.7 °F 15.8 °F 80% 29.26 in 0.5 mi NNW 31.1 mph 39.1 mph 0.00 in Snow Snow
11:53 AM 21.0 °F 3.9 °F 16.0 °F 81% 29.25 in 0.5 mi NNW 25.3 mph 41.4 mph 0.00 in Snow Snow
12:53 PM 21.0 °F 3.9 °F 15.1 °F 78% 29.20 in 0.8 mi NW 25.3 mph 40.3 mph 0.00 in Snow Light Snow
1:01 PM 21.2 °F 5.6 °F 15.8 °F 80% 29.18 in 1.0 mi NW 20.7 mph 35.7 mph 0.00 in Snow Light Snow
1:16 PM 21.2 °F 4.5 °F 15.8 °F 80% 29.17 in 0.8 mi NW 24.2 mph 43.7 mph 0.00 in Snow Light Snow
1:24 PM 21.2 °F 4.9 °F 15.8 °F 80% 29.17 in 1.0 mi NW 23.0 mph 34.5 mph 0.00 in Snow Light Snow
1:53 PM 21.9 °F 6.2 °F 15.1 °F 75% 29.18 in 1.5 mi NW 21.9 mph 32.2 mph 0.00 in Snow Light Snow
2:09 PM 21.2 °F 5.2 °F 14.0 °F 74% 29.16 in 2.5 mi NW 21.9 mph 34.5 mph 0.00 in Snow Light Snow
2:16 PM 23.0 °F 8.3 °F 14.0 °F 68% 29.16 in 3.0 mi NW 19.6 mph 31.1 mph 0.00 in Snow Light Snow
2:40 PM 21.2 °F 5.6 °F 12.2 °F 68% 29.17 in 2.5 mi NW 20.7 mph 31.1 mph 0.00 in Snow Light Snow
2:53 PM 21.9 °F 6.9 °F 12.9 °F 68% 29.18 in 2.0 mi NW 19.6 mph 35.7 mph 0.00 in Snow Light Snow
3:00 PM 21.2 °F 5.6 °F 12.2 °F 68% 29.16 in 2.5 mi NW 20.7 mph 35.7 mph 0.00 in Snow Light Snow
3:09 PM 21.2 °F 6.0 °F 12.2 °F 68% 29.17 in 3.0 mi NW 19.6 mph 29.9 mph 0.00 in Snow Light Snow
3:19 PM 21.2 °F 6.8 °F 10.4 °F 63% 29.17 in 5.0 mi NW 17.3 mph 35.7 mph 0.00 in Snow Light Snow
3:32 PM 21.2 °F 4.9 °F 10.4 °F 63% 29.17 in 2.5 mi NW 23.0 mph 34.5 mph 0.00 in Snow Light Snow
3:53 PM 21.0 °F 3.9 °F 10.9 °F 65% 29.20 in 1.8 mi NW 25.3 mph 40.3 mph 0.00 in Snow Light Snow
4:00 PM 21.2 °F 5.6 °F 10.4 °F 63% 29.18 in 2.0 mi NW 20.7 mph 40.3 mph 0.00 in Snow Light Snow
4:13 PM 19.4 °F 4.5 °F 12.2 °F 74% 29.19 in 1.5 mi NW 17.3 mph 39.1 mph 0.00 in Snow Light Snow
4:53 PM 18.0 °F 1.3 °F 8.1 °F 65% 29.23 in 2.0 mi WNW 20.7 mph 29.9 mph 0.00 in Snow Light Snow
5:04 PM 17.6 °F 1.7 °F 6.8 °F 63% 29.21 in 4.0 mi NW 18.4 mph 33.4 mph 0.00 in Snow Light Snow
5:25 PM 17.6 °F 1.3 °F 5.0 °F 58% 29.23 in 9.0 mi NW 19.6 mph 32.2 mph 0.00 in   Overcast
5:53 PM 17.1 °F -0.6 °F 3.9 °F 56% 29.26 in 10.0 mi NW 23.0 mph 38.0 mph 0.00 in   Overcast
6:53 PM 17.1 °F 0.1 °F 3.0 °F 54% 29.28 in 10.0 mi WNW 20.7 mph 33.4 mph 0.00 in   Overcast
7:53 PM 17.1 °F -0.3 °F 3.0 °F 54% 29.30 in 10.0 mi WNW 21.9 mph 34.5 mph N/A   Overcast
8:53 PM 18.0 °F -0.2 °F 3.0 °F 52% 29.32 in 10.0 mi WNW 25.3 mph 38.0 mph N/A   Overcast
9:53 PM 18.0 °F 1.7 °F 1.9 °F 50% 29.35 in 10.0 mi WNW 19.6 mph 36.8 mph 0.00 in   Overcast
10:53 PM 17.1 °F 1.0 °F 1.9 °F 52% 29.38 in 10.0 mi WNW 18.4 mph 31.1 mph N/A   Overcast